Weather Roundup
Issued by NWS Corpus Christi, TX

Home | Current Version | Previous Version | Text Only | Print | Product List | Glossary On
Versions: 1 2 3 4 5 6 7 8 9 10 11 12 13 14 15 16 17 18 19 20 21 22 23 24 25 26 27 28 29 30 31 32 33 34 35 36 37 38 39 40 41 42 43 44 45 46 47 48 49 50
000
ASUS44 KCRP 300810
HRRCRP

SOUTH TEXAS REGIONAL WEATHER ROUNDUP
NATIONAL WEATHER SERVICE CORPUS CHRISTI TX
300 AM CDT WED JUL 30 2014


TXZ229>244-300900-
...CORPUS CHRISTI AREA OBSERVATIONS...

CITY           SKY/WX    TMP DP  RH WIND       PRES   REMARKS
CORPUS CHRISTI PTCLDY    75  73  93 S7        30.02F
NAS CORPUS CHR CLEAR     80  77  90 SW7       30.02S
ROCKPORT       PTCLDY    81  75  82 S5        30.02S
KINGSVILLE NAS MOCLDY    76  75  97 S3        30.02F
ALICE          PTCLDY    76  74  93 S7        30.02F
FALFURRIAS     CLEAR     62  32  32 SE3       30.02S
$$

...VICTORIA AREA OBSERVATIONS...

CITY           SKY/WX    TMP DP  RH WIND       PRES   REMARKS
VICTORIA       PTCLDY    78  75  90 E3        30.04S
BEEVILLE       FAIR      75  75  98 S3        30.03S
PLEASANTON     CLEAR     77  71  82 SE5       30.04F
SAN ANTONIO    CLEAR     79  71  76 S12       30.06S
$$

...LAREDO AREA OBSERVATIONS...

CITY           SKY/WX    TMP DP  RH WIND       PRES   REMARKS
LAREDO         CLEAR     83  70  64 SE10      30.04S
COTULLA        CLEAR     79  66  64 E9        30.01S
DEL RIO        CLEAR     83  62  49 E10       29.99S
MCALLEN        PTCLDY    79  74  84 E7        30.03S
HEBBRONVILLE   PTCLDY    77  72  85 SE8       30.05S
$$

...OTHER TEXAS OBSERVATIONS...

CITY           SKY/WX    TMP DP  RH WIND       PRES   REMARKS
BROWNSVILLE    MOCLDY    79  75  89 CALM      30.04R
HOUSTON        PTCLDY    74  72  93 SE3       30.04S
COL. STATION   CLEAR     76  73  91 SE3       30.05S
AUSTIN         PTCLDY    72  68  87 CALM      30.05S
WACO           PTCLDY    74  68  81 SE7       30.04R
FORT WORTH     MOCLDY    75  65  70 E6        30.02F
WICHITA FALLS  LGT RAIN  72  67  84 SW7       30.04R
LUBBOCK        CLOUDY    71  65  81 S9        30.09F
EL PASO        PTCLDY    76  68  76 E3        30.08F
$$

...MARINE OBSERVATIONS...

STATION/POSITION TIME  SKY/WX   TEMP    WIND        PRES    VSBY  WAVE   SWELL
                                AIR SEA DIR/SP/G                  HT/PER HT/PER
                 (UTC)          (F)     (DEG/KT/KT) (MB)    (MI)  (FT/S) (FT/S)
PORT ARANSAS     0800            80 82  180/  6/  7 1017.2S
BUOY 90 E PORT A 0800            83 84  180/  6/  8 1017.1F         1/ 5   2/ 5
BUOY 45 SE BAFFI 0800            83 84  160/ 12/ 16 1016.4F         2/ 3
BUOY 200 E PT IS 0800            83 86  120/  2/  4 1017.0F         1/ 4
BUOY 15 E GALVES NOT AVBL
$$



USA.gov is the U.S. government's official web portal to all federal, state and local government web resources and services.